Starlink 32786

operational
NORAD ID: 62528 Int'l Des: 2025-004 Owner: SPXS Country: US Constellation: starlink
LEOCIRCULAR

About Starlink 32786

Description loading...

Live Position

Loading 3D Globe...

Upcoming Passes

Altitude History

Altitude vs Time

uPlot chart will show altitude changes over time

Two-Line Element Set

1 62528U 25004T 26035.08247885 .00033852 00000-0 12341-2 0 9996
2 62528 43.0031 49.2517 0001302 242.3663 117.7057 15.27579111 60379
Epoch: Feb 4, 2026 • Age: 17 hours

Current Status

Altitude 490.2 km
Velocity 7.62 km/s
Sub-Earth Point -30.38°S, 150.88°W
Launch Date Jan 8, 2025
Age 1 years
Type internet

Technical Details

Classification Payload
Mass 730.00 kg
Dry Mass 700.00 kg
Total Mass 730.00 kg
Length 0.30 m
Diameter 4.10 m
Span 29.00 m
Shape Box + pan
Manufacturer SPXS
Bus Type Starlink V2M
Phase Status In Orbit
Owner/State SPXS/US

Large Constellations

Loading constellations...